Location: Croisilles
(50.1998°N, 2.8793°E)
Time: 21:07:00
(UTC+00:00)

MOS 1 Rocket - Pass Details

Date: 21 January 2021
Orbit: 614 x 830 km, 97.4° (Epoch: 02 March)

Event Time Altitude Azimuth Distance (km) Brightness Sun altitude
Exits shadow 17:50:48 - 19° (NNE) 2,504 5.8 -13.6°
Reaches altitude 10° 17:52:02 10° 23° (NNE) 2,008 5.3 -13.8°
Maximum altitude 17:56:15 49° 99° (E) 800 3.2 -14.5°
Drops below altitude 10° 18:00:23 10° 174° (S) 1,972 5.7 -15.1°
Sets 18:02:37 0° 180° (S) 2,880 6.7 -15.4°
